Location: Grossmotten
(48.5500°N, 15.3833°E)
Time: 21:26:39
(UTC+00:00)

COSMOS 2455 - Pass Details

Date: 15 November 2019
Orbit: 902 x 908 km, 67.1° (Epoch: 10 December)

Event Time Altitude Azimuth Distance (km) Brightness Sun altitude
Exits shadow 04:31:31 14° 321° (NW) 2,341 4.6 -15.5°
Maximum altitude 04:36:48 71° 240° (WSW) 961 2.8 -14.7°
Drops below altitude 10° 04:42:46 10° 158° (SSE) 2,582 5.7 -13.7°
Sets 04:45:15 0° 156° (SSE) 3,518 6.5 -13.3°
